星链-5087 (STARLINK-5087 )

导读

STARLINK-5087是美国太空探索技术公司(SpaceX)星链(Starlink)互联网星座中的一颗卫星,于2022年12月28日由SpaceX从美国发射升空。它属于星链星座扩容批次,主要服务于全球卫星宽带互联网项目,为全球范围内尤其是偏远地区提供高速互联网接入服务,是SpaceX构建天基互联网组网进程中的一员。

Basic Information
目录编号:
54850
目录名称:
STARLINK-5087
国际标识:
2022-177AG
轨道中心:
EARTH
卫星名称:
星链-5087
卫星全名:
星链-5087 (STARLINK-5087 )
卫星状态:
在轨 (已飞行1354 天)
发射日期:
2022-12-28 UTC
国别 :
美国 (US)
星等 :
--
This satellite is enrolled in the Space Conjunction Data Service (SCDS) and the current flight risk assessment level is: No High Risk
Orbit Information
数据来源 国际轨道数据 AOE轨道数据
星历时间 2026-09-12T09:02:11+0800
12小时前
查看轨道信息
2026-09-10T23:00:00+0800
1天前
查看轨道信息
半长轴 6861.195km 6861.209km
偏心率 0.0001406 0.0000886
轨道倾角 43.002° 43.002°
近地点辐角 266.811° 207.369°
升交点赤经 148.930° 156.951°
平近点角 93.258° 264.557°
近地点 482.093km 482.464km
远地点 484.023km 483.68km
周期 94.267分钟 94.267分钟
每日圈数 15.275773 15.275724
Detailed Information
固有亮度:
5
最大亮度:
2.5
卫星平台:
Starlink v1.5
覆盖范围:
全球
运营商:
太空探索技术公司
运营商所在国:
美国
制造商(研发单位):
太空探索技术公司
制造商所在国:
美国
使用方式:
暂无
Satellite Introduction
星链(Starlink)计划是由太空探索技术公司(SpaceX)提出的一个巨型低轨卫星互联网星座项目,计划在2019年至2024年间在太空搭建由约1.2万颗卫星组成的“星链”网络,其中1584颗将部署在地球上空550千米处的近地轨道,并从2020年开始工作。该卫星仍在工作。
2D Orbit Map
3D Orbit Map
Orbit Altitude Analysis Chart
Orbit Inclination Analysis Chart
Orbit Comprehensive Analysis Chart
View Comprehensive Chart
Conjunction Data List
Event ID Objects TCA Miss Dist (km) Collision Risk Probability Collision Risk Index (CRI) Action
CDM_260915-012105-485006-649621
2026-09-15T
01:21:47+0000
0.389 km
远距离
2.695919E-4 高风险 0.84
CDM_260915-002005-485005-820021
2026-09-15T
00:20:34+0000
2.997 km
极远距离
1.314995E-6 低风险 0.37
CDM_260912-184205-485006-430121
2026-09-12T
18:42:44+0000
2.966 km
极远距离
9.140178E-7 极低风险 0.34
Miss Distance Evolution Trend with All Objects
Collision Probability Evolution Trend with All Objects